#timestamp,LO_Frequency,Hit 
1499036415.7,286047030.2,N
1499036435.5,286047028.5,N
1499036455.3,286047029.1,N
1499036475.2,286047030.8,N
1499036495.9,286047032.4,N
1499036515.7,286047032.0,N
1499036535.6,286047030.5,N
1499036555.4,286047028.5,N
1499036575.2,286047029.5,N
1499036595.0,286047027.1,N
1499036596.0,286047027.1,N
1499036615.8,286047026.9,N
1499036635.6,286047030.9,N
1499036655.4,286047032.5,N
1499036675.3,286047034.3,N
1499036695.1,286047033.9,N
1499036715.8,286047034.8,N
1499036735.7,286047037.9,N
1499036755.5,286047038.6,N
1499036775.3,286047036.6,N
1499036795.2,286047037.3,N
1499036815.9,286047039.0,N
1499036835.7,286047039.6,N
1499036855.6,286047037.0,N
1499036875.4,286047036.8,N
1499036895.2,286047034.9,N
1499036915.1,286047035.3,N
1499036916.0,286047035.3,N
1499036935.8,286047037.7,N
1499036955.6,286047037.0,N
1499036975.5,286047035.1,N
1499036995.3,286047035.9,N
1499037015.1,286047033.4,N
1499037035.8,286047035.5,N
1499037055.7,286047036.8,N
1499037075.5,286047039.3,N
1499037095.3,286047038.7,N
1499037115.2,286047040.4,N
1499037135.0,286047038.2,N
1499037135.9,286047038.2,N
1499037155.7,286047037.9,N
1499037175.6,286047036.3,N
1499037195.4,286047033.9,N
1499037215.2,286047035.0,N
1499037235.1,286047036.6,N
1499037236.0,286047036.6,N
1499037255.8,286047037.3,N
1499037275.6,286047037.0,N
1499037295.5,286047037.9,N
1499037315.3,286047048.2,N
1499037335.1,286047054.2,N
1499037355.8,286047056.4,N
1499037375.7,286047057.4,N
1499037395.5,286047057.9,N
1499037415.3,286047054.3,N
1499037435.2,286047049.4,N
1499037455.0,286047049.2,N
1499037455.9,286047049.2,N
1499037475.7,286047044.5,N
1499037495.6,286047042.5,N
1499037515.4,286047039.8,N
1499037535.2,286047041.2,N
1499037555.1,286047038.5,N
1499037556.0,286047038.5,N
1499037575.8,286047039.0,N
1499037595.6,286047036.8,N
1499037615.5,286047038.7,N
1499037635.3,286047040.9,N
1499037655.1,286047040.6,N
1499037675.9,286047043.4,N
1499037695.7,286047043.4,N
1499037715.5,286047043.1,N
1499037735.3,286047043.6,N
1499037755.2,286047047.1,N
1499037775.0,286047044.7,N
1499037775.9,286047044.7,N
1499037795.7,286047043.6,N
1499037815.6,286047042.0,N
1499037835.4,286047041.7,N
1499037855.2,286047043.5,N
1499037875.1,286047040.1,N
1499037876.0,286047040.1,N
1499037895.8,286047042.6,N
1499037915.6,286047040.9,N
1499037935.5,286047042.1,N
1499037955.3,286047039.8,N
1499037975.1,286047041.6,N
1499037995.9,286047044.1,N
1499038015.7,286047041.9,N
1499038035.5,286047042.6,N
1499038055.4,286047040.0,N
1499038075.2,286047042.7,N
1499038095.0,286047038.9,N
1499038095.9,286047038.9,N
1499038115.8,286047042.7,N
1499038135.6,286047042.5,N
1499038155.4,286047042.2,N
1499038175.2,286047039.7,N
1499038195.1,286047039.7,N
1499038196.0,286047039.7,N
1499038215.8,286047042.7,N
1499038235.6,286047042.5,N
1499038255.5,286047042.8,N
1499038275.3,286047042.3,N
1499038295.1,286047042.6,N
1499038315.9,286047044.2,N
1499038335.7,286047042.0,N
1499038355.5,286047041.2,N
1499038375.4,286047035.0,N
1499038395.2,286047036.5,N
1499038415.0,286047040.3,N
1499038415.9,286047040.3,N
1499038435.8,286047043.1,N
1499038455.6,286047045.0,N
1499038475.4,286047045.6,N
1499038495.2,286047047.6,N
1499038515.1,286047043.6,N
1499038516.0,286047043.6,N
1499038535.8,286047041.4,N
1499038555.6,286047040.1,N
1499038575.5,286047040.5,N
1499038595.3,286047038.5,N
1499038615.1,286047043.8,N
1499038635.9,286047045.9,N
1499038655.7,286047043.7,N
1499038675.5,286047043.3,N
1499038695.4,286047041.7,N
1499038715.2,286047043.0,N
1499038735.0,286047041.4,N
1499038735.9,286047041.4,N
1499038755.8,286047043.2,N
1499038775.6,286047044.2,N
1499038795.4,286047043.9,N
1499038815.3,286047044.2,N
1499038835.1,286047045.9,N
1499038836.0,286047045.9,N
1499038855.8,286047044.2,N
1499038875.7,286047041.9,N
1499038895.5,286047042.1,N
1499038915.3,286047040.5,N
1499038935.1,286047042.6,N
1499038955.9,286047040.0,N
1499038975.7,286047042.6,N
1499038995.5,286047046.6,N
1499039015.4,286047046.9,N
1499039035.2,286047041.3,N
1499039055.0,286047042.2,N
1499039055.9,286047042.2,N
1499039075.8,286047040.1,N
1499039095.6,286047043.8,N
1499039115.4,286047042.9,N
1499039135.3,286047041.4,N
1499039155.1,286047041.5,N
1499039156.0,286047041.5,N
1499039175.8,286047043.9,N
1499039195.7,286047041.4,N
1499039215.5,286047043.4,N
1499039235.3,286047043.8,N
1499039255.2,286047045.8,N
1499039275.9,286047045.4,N
1499039295.7,286047043.9,N
1499039315.5,286047046.0,N
1499039335.4,286047043.0,N
1499039355.2,286047041.8,N
1499039375.0,286047039.7,N
1499039375.9,286047039.7,N
1499039395.8,286047045.7,N
1499039415.6,286047046.8,N
1499039435.4,286047048.9,N
1499039455.3,286047048.1,N
1499039475.1,286047052.3,N
1499039495.8,286047052.8,N
1499039515.7,286047051.5,N
1499039535.5,286047052.7,N
1499039555.3,286047050.9,N
1499039575.2,286047055.1,N
1499039595.9,286047051.3,N
1499039615.7,286047052.7,N
1499039635.5,286047054.0,N
1499039655.4,286047049.7,N
1499039675.2,286047050.7,N
1499039695.0,286047048.9,N
1499039695.9,286047048.9,N
1499039715.8,286047049.1,N
1499039735.6,286047046.8,N
1499039755.4,286047046.7,N
1499039775.3,286047049.0,N
1499039795.1,286047048.4,N
1499039815.8,286047048.4,N
1499039835.7,286047048.3,N
1499039855.5,286047046.3,N
1499039875.3,286047046.9,N
1499039895.2,286047047.5,N
1499039915.9,286047043.3,N
1499039935.7,286047042.9,N
1499039955.6,286047047.1,N
1499039975.4,286047045.8,N
1499039995.2,286047048.4,N
